This demonstration page uses our WeatherBlox Daily Observations layout. Learn more.

Left ArrowRight Arrow

Hourly Observations for November 28, 2016

Temp ( °F °C ) Dew Point ( °F °C ) Humidity (%) Winds ( mph kmh ) Pressure ( in mb ) Visibility ( mi km ) Precip ( " mm )
12:59 am 00:59 Partly Cloudy 35 1.7 33 0.6 93 93 Calm 30.23 1024 7 11 0.00 0.00
1:59 am 01:59 Mostly Cloudy 36 2.2 33 0.6 89 89 S 3 6 30.23 1024 8 13 0.00 0.00
2:59 am 02:59 Cloudy 37 2.8 33 0.6 86 86 Calm 30.23 1024 9 14 0.00 0.00
3:59 am 03:59 Cloudy 38 3.3 34 1.1 86 86 Calm 30.22 1023 10 16 0.00 0.00
4:59 am 04:59 Cloudy 38 3.3 34 1.1 86 86 SSW 3 6 30.24 1024 9 14 0.00 0.00
5:59 am 05:59 Mostly Cloudy 37 2.8 33 0.6 86 86 Calm 30.23 1024 9 14 0.00 0.00
6:59 am 06:59 Mostly Cloudy 37 2.8 32 0 82 82 SSW 3 6 30.24 1024 9 14 0.00 0.00
7:59 am 07:59 Mostly Cloudy 41 5 34 1.1 76 76 SSW 6 9 30.25 1025 8 13 0.00 0.00
8:59 am 08:59 Mostly Cloudy 47 8.3 35 1.7 63 63 S 5 7 30.26 1025 9 14 0.00 0.00
9:59 am 09:59 Mostly Cloudy 51 10.6 34 1.1 52 52 S 6 9 30.26 1025 10 16 0.00 0.00
10:59 am 10:59 Mostly Cloudy 53 11.7 31 -0.6 43 43 S 8 13 30.24 1024 10 16 0.00 0.00
11:59 am 11:59 Cloudy 54 12.2 31 -0.6 42 42 S 8 13 30.22 1023 10 16 0.00 0.00
12:59 pm 12:59 Cloudy 54 12.2 30 -1.1 40 40 SSW 9 15 30.19 1022 10 16 0.00 0.00
1:59 pm 13:59 Sunny 55 12.8 31 -0.6 40 40 S 8 13 30.16 1022 10 16 0.00 0.00
2:59 pm 14:59 Cloudy 55 12.8 31 -0.6 40 40 SSW 9 15 30.16 1021 10 16 0.00 0.00
3:59 pm 15:59 Mostly Cloudy 52 11.1 33 0.6 49 49 SSE 5 7 30.15 1021 10 16 0.00 0.00
4:59 pm 16:59 Mostly Cloudy 52 11.1 33 0.6 49 49 SSE 5 7 30.15 1021 10 16 0.00 0.00
5:59 pm 17:59 Mostly Cloudy 51 10.6 35 1.7 54 54 SE 5 7 30.14 1021 10 16 0.00 0.00
6:59 pm 18:59 Mostly Cloudy 51 10.6 38 3.3 61 61 SE 7 11 30.13 1020 10 16 0.00 0.00
7:59 pm 19:59 Mostly Cloudy 52 11.1 39 3.9 61 61 SSE 9 15 30.13 1020 10 16 0.00 0.00
8:59 pm 20:59 Cloudy 51 10.6 43 6.1 74 74 SE 7 11 30.13 1020 10 16 0.00 0.00
9:59 pm 21:59 Cloudy 53 11.7 46 7.8 77 77 SSE 9 15 30.12 1020 10 16 0.00 0.00
10:59 pm 22:59 Cloudy 54 12.2 47 8.3 77 77 SSE 8 13 30.11 1020 10 16 0.00 0.00
11:59 pm 23:59 Cloudy 54 12.2 46 7.8 75 75 SSE 8 13 30.11 1020 10 16 0.00 0.00

Powered by AerisWeather